Time,TemperatureF,DewpointF,PressureIn,WindDirection,WindDirectionDegrees,WindSpeedMPH,WindSpeedGustMPH,Humidity,HourlyPrecipIn,Conditions,Clouds,dailyrainin,SolarRadiationWatts/m^2,SoftwareType,DateUTC
2013-02-21 11:13:00,56.4,42.2,30.04,South,188,8.0,10.0,59,0.00,,,0.00,719,Wunderground v.1.15,2013-02-21 19:13:00,
2013-02-21 11:15:00,56.2,42.1,30.04,SSW,193,8.0,10.0,59,0.00,,,0.00,722,Wunderground v.1.15,2013-02-21 19:15:00,
2013-02-21 11:20:00,55.6,41.0,30.04,South,171,9.0,10.0,58,0.00,,,0.00,722,Wunderground v.1.15,2013-02-21 19:20:00,
2013-02-21 11:25:00,55.1,41.9,30.03,South,169,9.0,10.0,61,0.00,,,0.00,724,Wunderground v.1.15,2013-02-21 19:25:00,
2013-02-21 11:30:00,55.6,43.2,30.03,South,183,9.0,11.0,63,0.00,,,0.00,729,Wunderground v.1.15,2013-02-21 19:30:00,
2013-02-21 11:35:00,55.1,42.7,30.03,South,171,9.0,10.0,63,0.00,,,0.00,735,Wunderground v.1.15,2013-02-21 19:35:00,
2013-02-21 11:45:00,55.2,43.6,30.03,South,170,9.0,9.0,65,0.00,,,0.00,744,Wunderground v.1.15,2013-02-21 19:45:00,
2013-02-21 11:50:00,55.4,43.4,30.03,SSW,204,8.0,10.0,64,0.00,,,0.00,742,Wunderground v.1.15,2013-02-21 19:50:00,
2013-02-21 12:00:00,55.5,43.9,30.02,SSW,207,8.0,8.0,65,0.00,,,0.00,744,Wunderground v.1.15,2013-02-21 20:00:00,
2013-02-21 12:05:00,55.9,43.5,30.02,SSW,209,8.0,10.0,63,0.00,,,0.00,745,Wunderground v.1.15,2013-02-21 20:05:00,
2013-02-21 12:10:00,55.6,44.0,30.02,South,170,9.0,11.0,65,0.00,,,0.00,747,Wunderground v.1.15,2013-02-21 20:10:00,
2013-02-21 12:20:00,55.5,43.5,30.02,SSW,207,8.0,8.0,64,0.00,,,0.00,745,Wunderground v.1.15,2013-02-21 20:20:00,
2013-02-21 12:25:00,56.0,44.0,30.02,SSW,205,8.0,10.0,64,0.00,,,0.00,744,Wunderground v.1.15,2013-02-21 20:25:00,
2013-02-21 12:30:00,55.6,43.6,30.02,South,184,8.0,10.0,64,0.00,,,0.00,737,Wunderground v.1.15,2013-02-21 20:30:00,
2013-02-21 12:35:00,55.8,44.6,30.02,SW,225,8.0,10.0,66,0.00,,,0.00,733,Wunderground v.1.15,2013-02-21 20:35:00,
2013-02-21 12:40:00,55.8,44.6,30.01,SSW,197,8.0,10.0,66,0.00,,,0.00,733,Wunderground v.1.15,2013-02-21 20:40:00,
2013-02-21 12:50:00,55.6,44.4,30.02,SSE,162,8.0,8.0,66,0.00,,,0.00,728,Wunderground v.1.15,2013-02-21 20:50:00,
2013-02-21 12:55:00,55.6,45.2,30.01,South,190,8.0,10.0,68,0.00,,,0.00,724,Wunderground v.1.15,2013-02-21 20:55:00,
2013-02-21 13:05:00,55.8,45.8,30.01,South,171,8.0,10.0,69,0.00,,,0.00,717,Wunderground v.1.15,2013-02-21 21:05:00,
2013-02-21 13:10:00,55.3,44.9,30.01,South,180,8.0,10.0,68,0.00,,,0.00,712,Wunderground v.1.15,2013-02-21 21:10:00,
2013-02-21 13:15:00,55.4,45.4,30.01,South,172,9.0,12.0,69,0.00,,,0.00,708,Wunderground v.1.15,2013-02-21 21:15:00,
2013-02-21 13:25:00,56.5,46.4,30.01,SW,217,8.0,10.0,69,0.00,,,0.00,693,Wunderground v.1.15,2013-02-21 21:25:00,
2013-02-21 13:30:00,56.4,46.4,30.01,WSW,239,7.0,10.0,69,0.00,,,0.00,717,Wunderground v.1.15,2013-02-21 21:30:00,
2013-02-21 13:35:00,55.9,45.1,30.01,WSW,244,8.0,10.0,67,0.00,,,0.00,710,Wunderground v.1.15,2013-02-21 21:35:00,
2013-02-21 13:40:00,55.1,45.5,30.01,SSW,205,9.0,9.0,70,0.00,,,0.00,698,Wunderground v.1.15,2013-02-21 21:40:00,
2013-02-21 13:45:00,55.6,45.6,30.00,WSW,257,8.0,10.0,69,0.00,,,0.00,670,Wunderground v.1.15,2013-02-21 21:45:00,
2013-02-21 13:50:00,55.8,46.2,30.00,SW,229,7.0,10.0,70,0.00,,,0.00,656,Wunderground v.1.15,2013-02-21 21:50:00,
2013-02-21 13:55:00,56.3,45.9,30.00,West,272,7.0,10.0,68,0.00,,,0.00,645,Wunderground v.1.15,2013-02-21 21:55:00,
2013-02-21 14:00:00,55.2,44.8,30.00,WSW,244,8.0,11.0,68,0.00,,,0.00,636,Wunderground v.1.15,2013-02-21 22:00:00,
2013-02-21 14:10:00,55.4,45.0,30.00,WSW,247,8.0,12.0,68,0.00,,,0.00,622,Wunderground v.1.15,2013-02-21 22:10:00,
2013-02-21 14:15:00,55.3,44.9,30.00,WSW,244,7.0,12.0,68,0.00,,,0.00,612,Wunderground v.1.15,2013-02-21 22:15:00,
2013-02-21 14:20:00,55.8,44.2,30.00,WSW,255,6.0,10.0,65,0.00,,,0.00,599,Wunderground v.1.15,2013-02-21 22:20:00,
2013-02-21 14:25:00,55.2,43.6,30.00,SW,227,7.0,10.0,65,0.00,,,0.00,591,Wunderground v.1.15,2013-02-21 22:25:00,
2013-02-21 14:30:00,55.2,42.8,30.00,WSW,254,8.0,10.0,63,0.00,,,0.00,578,Wunderground v.1.15,2013-02-21 22:30:00,
2013-02-21 14:35:00,55.2,43.6,30.00,WSW,244,8.0,10.0,65,0.00,,,0.00,568,Wunderground v.1.15,2013-02-21 22:35:00,
2013-02-21 14:40:00,55.7,43.7,30.00,WNW,292,7.0,7.0,64,0.00,,,0.00,554,Wunderground v.1.15,2013-02-21 22:40:00,
2013-02-21 14:45:00,55.5,42.7,30.00,SW,229,8.0,8.0,62,0.00,,,0.00,545,Wunderground v.1.15,2013-02-21 22:45:00,
2013-02-21 14:55:00,56.2,42.1,30.00,SW,229,7.0,10.0,59,0.00,,,0.00,520,Wunderground v.1.15,2013-02-21 22:55:00,
2013-02-21 15:00:00,56.4,42.7,30.00,WSW,257,7.0,9.0,60,0.00,,,0.00,503,Wunderground v.1.15,2013-02-21 23:00:00,
2013-02-21 15:10:00,56.3,43.0,30.00,West,276,8.0,9.0,61,0.00,,,0.00,473,Wunderground v.1.15,2013-02-21 23:10:00,
2013-02-21 15:15:00,55.9,43.5,30.00,WSW,254,8.0,9.0,63,0.00,,,0.00,462,Wunderground v.1.15,2013-02-21 23:15:00,
2013-02-21 15:20:00,55.9,43.9,30.00,WSW,247,8.0,10.0,64,0.00,,,0.00,445,Wunderground v.1.15,2013-02-21 23:20:00,
2013-02-21 15:25:00,56.3,43.4,30.00,WSW,244,7.0,10.0,62,0.00,,,0.00,429,Wunderground v.1.15,2013-02-21 23:25:00,
2013-02-21 15:30:00,56.7,43.8,30.00,WSW,242,7.0,8.0,62,0.00,,,0.00,413,Wunderground v.1.15,2013-02-21 23:30:00,
2013-02-21 15:40:00,55.8,45.0,30.00,WSW,252,8.0,12.0,67,0.00,,,0.00,381,Wunderground v.1.15,2013-02-21 23:40:00,
2013-02-21 15:45:00,55.8,45.8,30.00,WSW,244,8.0,12.0,69,0.00,,,0.00,366,Wunderground v.1.15,2013-02-21 23:45:00,
2013-02-21 15:50:00,55.7,46.1,30.00,West,263,8.0,12.0,70,0.00,,,0.00,348,Wunderground v.1.15,2013-02-21 23:50:00,
2013-02-21 15:55:00,55.9,47.4,30.00,WNW,282,8.0,12.0,73,0.00,,,0.00,327,Wunderground v.1.15,2013-02-21 23:55:00,
2013-02-21 16:00:00,55.9,47.4,30.00,West,271,6.0,12.0,73,0.00,,,0.00,313,Wunderground v.1.15,2013-02-22 00:00:00,
2013-02-21 16:10:00,55.6,47.8,30.00,WNW,296,7.0,7.0,75,0.00,,,0.00,274,Wunderground v.1.15,2013-02-22 00:10:00,
2013-02-21 16:20:00,55.7,47.9,30.01,West,261,6.0,12.0,75,0.00,,,0.00,239,Wunderground v.1.15,2013-02-22 00:20:00,
2013-02-21 16:25:00,55.7,47.9,30.00,WSW,250,7.0,12.0,75,0.00,,,0.00,216,Wunderground v.1.15,2013-02-22 00:25:00,
2013-02-21 16:30:00,55.8,48.0,30.00,WSW,242,7.0,7.0,75,0.00,,,0.00,197,Wunderground v.1.15,2013-02-22 00:30:00,
2013-02-21 16:35:00,55.7,47.5,30.01,SW,230,7.0,12.0,74,0.00,,,0.00,179,Wunderground v.1.15,2013-02-22 00:35:00,
2013-02-21 16:40:00,55.5,47.3,30.00,WSW,250,7.0,7.0,74,0.00,,,0.00,156,Wunderground v.1.15,2013-02-22 00:40:00,
2013-02-21 16:50:00,55.1,47.7,30.01,WSW,246,7.0,7.0,76,0.00,,,0.00,120,Wunderground v.1.15,2013-02-22 00:50:00,
2013-02-21 17:00:00,54.9,47.5,30.01,West,279,6.0,12.0,76,0.00,,,0.00,83,Wunderground v.1.15,2013-02-22 01:00:00,
2013-02-21 17:05:00,54.8,47.7,30.01,WNW,287,6.0,12.0,77,0.00,,,0.00,67,Wunderground v.1.15,2013-02-22 01:05:00,
2013-02-21 17:10:00,54.7,48.0,30.01,West,263,6.0,12.0,78,0.00,,,0.00,51,Wunderground v.1.15,2013-02-22 01:10:00,
2013-02-21 17:15:00,54.6,47.9,30.01,West,275,5.0,12.0,78,0.00,,,0.00,40,Wunderground v.1.15,2013-02-22 01:15:00,
2013-02-21 17:20:00,54.5,47.8,30.02,West,281,5.0,5.0,78,0.00,,,0.00,30,Wunderground v.1.15,2013-02-22 01:20:00,
2013-02-21 17:25:00,54.5,47.8,30.02,West,279,4.0,12.0,78,0.00,,,0.00,23,Wunderground v.1.15,2013-02-22 01:25:00,
2013-02-21 17:30:00,54.3,47.6,30.02,West,277,4.0,12.0,78,0.00,,,0.00,18,Wunderground v.1.15,2013-02-22 01:30:00,
2013-02-21 17:35:00,54.2,47.5,30.02,West,263,4.0,12.0,78,0.00,,,0.00,14,Wunderground v.1.15,2013-02-22 01:35:00,
2013-02-21 17:40:00,54.2,47.5,30.03,West,263,3.0,3.0,78,0.00,,,0.00,11,Wunderground v.1.15,2013-02-22 01:40:00,
2013-02-21 17:50:00,54.0,47.6,30.03,West,259,3.0,12.0,79,0.00,,,0.00,0,Wunderground v.1.15,2013-02-22 01:50:00,
2013-02-21 17:55:00,53.9,47.5,30.03,West,260,3.0,12.0,79,0.00,,,0.00,0,Wunderground v.1.15,2013-02-22 01:55:00,
2013-02-21 18:00:00,53.9,48.2,30.03,WSW,247,4.0,4.0,81,0.00,,,0.00,0,Wunderground v.1.15,2013-02-22 02:00:00,
2013-02-21 18:05:00,53.7,48.3,30.03,WSW,247,3.0,12.0,82,0.00,,,0.00,0,Wunderground v.1.15,2013-02-22 02:05:00,
2013-02-21 18:10:00,53.6,48.2,30.03,WSW,247,3.0,3.0,82,0.00,,,0.00,0,Wunderground v.1.15,2013-02-22 02:10:00,
2013-02-21 18:15:00,53.5,48.5,30.03,WSW,247,2.0,12.0,83,0.00,,,0.00,0,Wunderground v.1.15,2013-02-22 02:15:00,
2013-02-21 18:20:00,53.3,48.3,30.03,WSW,247,2.0,12.0,83,0.00,,,0.00,0,Wunderground v.1.15,2013-02-22 02:20:00,
2013-02-21 18:30:00,53.4,48.7,30.04,WSW,247,2.0,2.0,84,0.00,,,0.00,0,Wunderground v.1.15,2013-02-22 02:30:00,
2013-02-21 18:35:00,53.4,48.7,30.04,WSW,247,2.0,12.0,84,0.00,,,0.00,0,Wunderground v.1.15,2013-02-22 02:35:00,
2013-02-21 18:45:00,53.2,48.5,30.04,WSW,247,0.0,12.0,84,0.00,,,0.00,0,Wunderground v.1.15,2013-02-22 02:45:00,
2013-02-21 18:50:00,53.2,48.5,30.05,WSW,247,0.0,12.0,84,0.00,,,0.00,0,Wunderground v.1.15,2013-02-22 02:50:00,
2013-02-21 18:55:00,53.2,48.5,30.05,WSW,247,0.0,12.0,84,0.00,,,0.00,0,Wunderground v.1.15,2013-02-22 02:55:00,
2013-02-21 19:00:00,53.2,48.5,30.05,WSW,247,0.0,12.0,84,0.00,,,0.00,0,Wunderground v.1.15,2013-02-22 03:00:00,
2013-02-21 19:05:00,53.0,48.3,30.05,WSW,247,0.0,12.0,84,0.00,,,0.00,0,Wunderground v.1.15,2013-02-22 03:05:00,
2013-02-21 19:10:00,53.0,48.3,30.05,WSW,247,0.0,12.0,84,0.00,,,0.00,0,Wunderground v.1.15,2013-02-22 03:10:00,
2013-02-21 19:15:00,52.6,47.6,30.05,WSW,247,0.0,12.0,83,0.00,,,0.00,0,Wunderground v.1.15,2013-02-22 03:15:00,
2013-02-21 19:20:00,52.2,47.5,30.06,WSW,247,0.0,12.0,84,0.00,,,0.00,0,Wunderground v.1.15,2013-02-22 03:20:00,
2013-02-21 19:25:00,52.0,47.3,30.06,WSW,247,0.0,12.0,84,0.00,,,0.00,0,Wunderground v.1.15,2013-02-22 03:25:00,
2013-02-21 19:35:00,51.7,47.3,30.07,WSW,247,0.0,12.0,85,0.00,,,0.00,0,Wunderground v.1.15,2013-02-22 03:35:00,
2013-02-21 19:40:00,51.6,47.5,30.06,WSW,247,0.0,12.0,86,0.00,,,0.00,0,Wunderground v.1.15,2013-02-22 03:40:00,
2013-02-21 19:45:00,51.6,47.5,30.06,WSW,247,1.0,12.0,86,0.00,,,0.00,0,Wunderground v.1.15,2013-02-22 03:45:00,
2013-02-21 19:50:00,51.6,47.5,30.07,NNW,339,2.0,2.0,86,0.00,,,0.00,0,Wunderground v.1.15,2013-02-22 03:50:00,
2013-02-21 19:55:00,51.5,47.5,30.07,NNW,339,2.0,12.0,86,0.00,,,0.00,0,Wunderground v.1.15,2013-02-22 03:55:00,
2013-02-21 20:00:00,51.3,47.3,30.07,NNW,339,1.0,1.0,86,0.00,,,0.00,0,Wunderground v.1.15,2013-02-22 04:00:00,
2013-02-21 20:05:00,51.0,47.0,30.08,NNW,339,1.0,12.0,86,0.00,,,0.00,0,Wunderground v.1.15,2013-02-22 04:05:00,
2013-02-21 20:10:00,50.8,46.8,30.08,NNW,339,2.0,12.0,86,0.00,,,0.00,0,Wunderground v.1.15,2013-02-22 04:10:00,
2013-02-21 20:15:00,50.5,46.5,30.08,NE,41,3.0,12.0,86,0.00,,,0.00,0,Wunderground v.1.15,2013-02-22 04:15:00,
2013-02-21 20:20:00,50.4,46.4,30.08,NE,43,4.0,12.0,86,0.00,,,0.00,0,Wunderground v.1.15,2013-02-22 04:20:00,
2013-02-21 20:25:00,50.2,46.2,30.08,NE,44,4.0,12.0,86,0.00,,,0.00,0,Wunderground v.1.15,2013-02-22 04:25:00,
2013-02-21 20:30:00,50.0,46.0,30.08,NE,42,3.0,3.0,86,0.00,,,0.00,0,Wunderground v.1.15,2013-02-22 04:30:00,
2013-02-21 20:35:00,49.9,45.9,30.08,NE,35,3.0,4.0,86,0.00,,,0.00,0,Wunderground v.1.15,2013-02-22 04:35:00,
2013-02-21 20:45:00,49.8,45.8,30.08,NNE,33,3.0,12.0,86,0.00,,,0.00,0,Wunderground v.1.15,2013-02-22 04:45:00,
2013-02-21 20:50:00,49.4,45.1,30.08,NNE,17,2.0,12.0,85,0.00,,,0.00,0,Wunderground v.1.15,2013-02-22 04:50:00,
2013-02-21 21:00:00,48.8,44.2,30.09,NE,36,3.0,3.0,84,0.00,,,0.00,0,Wunderground v.1.15,2013-02-22 05:00:00,
2013-02-21 21:05:00,48.6,43.7,30.09,NE,36,2.0,12.0,83,0.00,,,0.00,0,Wunderground v.1.15,2013-02-22 05:05:00,
2013-02-21 21:10:00,48.5,43.3,30.09,NNE,17,2.0,12.0,82,0.00,,,0.00,0,Wunderground v.1.15,2013-02-22 05:10:00,
2013-02-21 21:15:00,48.4,43.2,30.09,NNE,17,3.0,12.0,82,0.00,,,0.00,0,Wunderground v.1.15,2013-02-22 05:15:00,
2013-02-21 21:20:00,48.3,42.7,30.09,NNE,17,3.0,12.0,81,0.00,,,0.00,0,Wunderground v.1.15,2013-02-22 05:20:00,
2013-02-21 21:25:00,48.3,42.4,30.09,NNE,17,3.0,12.0,80,0.00,,,0.00,0,Wunderground v.1.15,2013-02-22 05:25:00,
2013-02-21 21:30:00,48.3,42.1,30.09,NNE,21,2.0,12.0,79,0.00,,,0.00,0,Wunderground v.1.15,2013-02-22 05:30:00,
2013-02-21 21:35:00,48.4,41.9,30.10,NNE,22,3.0,12.0,78,0.00,,,0.00,0,Wunderground v.1.15,2013-02-22 05:35:00,
2013-02-21 21:40:00,48.4,41.5,30.10,NNE,20,3.0,12.0,77,0.00,,,0.00,0,Wunderground v.1.15,2013-02-22 05:40:00,
2013-02-21 21:45:00,48.3,41.4,30.10,North,11,3.0,12.0,77,0.00,,,0.00,0,Wunderground v.1.15,2013-02-22 05:45:00,
2013-02-21 21:50:00,48.3,41.1,30.10,NNE,31,3.0,12.0,76,0.00,,,0.00,0,Wunderground v.1.15,2013-02-22 05:50:00,
2013-02-21 21:55:00,48.1,40.9,30.10,NNE,30,3.0,12.0,76,0.00,,,0.00,0,Wunderground v.1.15,2013-02-22 05:55:00,
2013-02-21 22:00:00,48.0,40.8,30.10,NNE,30,2.0,2.0,76,0.00,,,0.00,0,Wunderground v.1.15,2013-02-22 06:00:00,
2013-02-21 22:10:00,47.9,40.7,30.10,North,355,2.0,12.0,76,0.00,,,0.00,0,Wunderground v.1.15,2013-02-22 06:10:00,
2013-02-21 22:15:00,47.8,40.6,30.10,NNW,345,3.0,12.0,76,0.00,,,0.00,0,Wunderground v.1.15,2013-02-22 06:15:00,
2013-02-21 22:20:00,47.7,40.5,30.10,North,349,2.0,2.0,76,0.00,,,0.00,0,Wunderground v.1.15,2013-02-22 06:20:00,
2013-02-21 22:25:00,47.4,39.9,30.10,North,349,2.0,12.0,75,0.00,,,0.00,0,Wunderground v.1.15,2013-02-22 06:25:00,
2013-02-21 22:30:00,47.3,40.1,30.11,North,360,2.0,12.0,76,0.00,,,0.00,0,Wunderground v.1.15,2013-02-22 06:30:00,
2013-02-21 22:35:00,47.2,40.0,30.10,NNE,22,3.0,12.0,76,0.00,,,0.00,0,Wunderground v.1.15,2013-02-22 06:35:00,
2013-02-21 22:40:00,47.2,39.7,30.10,NNE,13,3.0,3.0,75,0.00,,,0.00,0,Wunderground v.1.15,2013-02-22 06:40:00,
2013-02-21 22:50:00,47.1,39.6,30.11,NNE,12,3.0,12.0,75,0.00,,,0.00,0,Wunderground v.1.15,2013-02-22 06:50:00,
2013-02-21 22:55:00,47.0,39.5,30.11,NNE,12,2.0,12.0,75,0.00,,,0.00,0,Wunderground v.1.15,2013-02-22 06:55:00,
2013-02-21 23:05:00,47.0,39.5,30.10,NNE,13,2.0,12.0,75,0.00,,,0.00,0,Wunderground v.1.15,2013-02-22 07:05:00,
2013-02-21 23:10:00,47.0,39.1,30.11,NNE,19,3.0,3.0,74,0.00,,,0.00,0,Wunderground v.1.15,2013-02-22 07:10:00,
2013-02-21 23:15:00,47.1,39.2,30.10,NNE,20,4.0,4.0,74,0.00,,,0.00,0,Wunderground v.1.15,2013-02-22 07:15:00,
2013-02-21 23:20:00,47.1,38.9,30.11,North,11,3.0,12.0,73,0.00,,,0.00,0,Wunderground v.1.15,2013-02-22 07:20:00,
2013-02-21 23:25:00,47.1,38.9,30.11,North,11,2.0,12.0,73,0.00,,,0.00,0,Wunderground v.1.15,2013-02-22 07:25:00,
2013-02-21 23:30:00,47.0,38.8,30.11,NNE,13,2.0,12.0,73,0.00,,,0.00,0,Wunderground v.1.15,2013-02-22 07:30:00,
2013-02-21 23:35:00,46.8,38.2,30.11,NNE,13,3.0,12.0,72,0.00,,,0.00,0,Wunderground v.1.15,2013-02-22 07:35:00,
2013-02-21 23:40:00,46.6,38.1,30.11,NNE,13,3.0,12.0,72,0.00,,,0.00,0,Wunderground v.1.15,2013-02-22 07:40:00,
2013-02-21 23:50:00,46.4,38.2,30.11,North,11,3.0,3.0,73,0.00,,,0.00,0,Wunderground v.1.15,2013-02-22 07:50:00,
2013-02-21 23:55:00,46.3,38.1,30.11,North,5,3.0,5.0,73,0.00,,,0.00,0,Wunderground v.1.15,2013-02-22 07:55:00,